Back to catalog

ATLAS 5 CENTAUR DEB

LostHEO
NORAD 44672·DEBRIS·🇺🇸 United States

Launched Oct 17, 2018 from Cape Canaveral Space Force Station

Loading…

Next Passes (next 24 hours)

TLE

StaleSource: Space-Track

Epoch: Nov 21, 2021, 11:59 UTC

1 44672U 18079AJ  21325.49998394 -.00000094  00000-0  00000-0 0  9990
2 44672  10.4733 182.9042 5795822  54.4763 346.8961  1.84352227 16431

Track ATLAS 5 CENTAUR DEB in real time with AllMySat

Download on the App Store